STARLINK-32520, 62021

Orbit data source: Space-Track

STARLINK-32520, 62021 is a payload satellite owned by SpaceX/Seattle (US) in LEO that was launched on Mon, 18 Nov 2024 UTC via an FALCON 9 launch vehicle from the Air Force Western Test Range (AFWTR). Payload-class satellites include a variety of spacecraft equipped with specific instruments for various scientific and technological missions. These include communications satellites like Starlink; space stations such as the ISS; scientific satellites like the Hubble; Earth observation satellites from companies like Planet Labs, Umbra, and HawkEye 360; GPS; miniature CubeSats for education and research; and military/defense satellites.

Loading next visibility...
Identifier
62021, 2024-213P
Orbit
LEO
Country
Flag of USUS
Related business
Manufacturer
SpaceX/Seattle
Mission
Operational Commercial Communications
Bus & Motor
STARLINK V2M, Unknown motor
Mass
730 kg wet, ~700 kg dry
Launch date (UTC)
2024-11-18 (11 months ago)
Launch vehicle
FALCON 9
Launch site
Air Force Western Test Range (AFWTR)
Object type
Payload
Rocket body
Debris
Shape & HBR
Box + 2 Pan, 17.7 m
Radar Cross Section
33.884 m², Large (>1 m²)

Expand to show TLE details & history
Last TLE update: 6 hours ago

TLE from 6 hours ago
0 STARLINK-32520
1 62021U 24213P   25293.33336806  .00098223  00000-0  32903-2 0  9999
2 62021  53.1571 100.3814 0001145  91.0497 179.3006 15.30146951  5773
Epoch: 2025-10-20T08:00Z
TLE epoch observation values (Epoch: 2025-10-20T08:00:03.000Z)
Latitude
-53.3076°
Longitude
-138.08524°
Altitude
494.7 km
Speed
7.617 km/s
True Right ascension
00h 43m 51s
True Declination
-53° 08' 11"
Sunlit
Object was in full shadow at epoch
Visualization orbit readout
Latitude
Unknown
Longitude
Unknown
Altitude
Unknown
Speed
Unknown
Apparent Right ascension
Unknown
Apparent Declination
Unknown
Sunlit
N/A
Visualization observer readout
Local Sidereal Time
09:06:59
Azimuth
Unknown
Elevation
Unknown
Doppler factor
Unknown
Orbital elements
Apogee altitude
476.415 km
Perigee altitude
474.846 km
Semi-major axis
6,853.767 km
Eccentricity
0.00011
Inclination
53.1571°
RAAN
100.3814°
Arg. of periapsis
91.0497°
True anomaly
179.30076°
Mean anomaly
179.3006°
Eccentric anomaly
179.30068°
Mean motion
3.82516 °/min
Orbital period
94.11 mins
BSTAR
0.0032903
Loading maneuver chart data...
Computing Atmospheric mass density...
Loading historical data...
Loading historical data...
Loading historical data...
Loading historical data...
Loading historical data...
Loading historical data...
Loading historical data...

Documentation

Showing up to 5 results
|